sat.trackr.live / text

‹ back to catalog

STARLINK-34012

NORAD 63926 · 2025-098A

PAYLOAD ACTIVE UNKNOWN

§ Identity

Operator
Country
US
Launch date
2025-05-13
Launch site
AFWTR
Launch vehicle
Mass (kg)
RCS (m²)

Purposes: comms

External: N2YO · Heavens-Above · Gunter

§ Orbital elements

Epoch: 2026-09-20T22:47:57.918624Z

Period
94.14 min
Inclination
69.9955°
Eccentricity
0.0004525
Mean motion
15.29585350 rev/d
Perigee alt
473.9 km
Apogee alt
480.2 km
Semi-major
6,855.2 km
B*
3.2037e-4
RAAN
139.6235°
Arg perigee
280.5689°
Mean anomaly
79.4976°
Rev number
7,590

§ Raw data

STARLINK-340121 63926U 25098A   26263.94997591  .00009095  00000+0  32037-3 0  99922 63926  69.9955 139.6235 0004525 280.5689  79.4976 15.29585350 75900

JSON: /api/v1/satellites/63926 · /tle

For live sub-satellite position, see the globe view (requires WebGL).

§ Visibility from observer

Set your observer location to see the next 7 days of passes ≥ 10°. The values pass through the URL so the page stays shareable.

No JS? Fill the form by hand. The geolocation button needs JavaScript.